Temperature
17 16 17 17 17 17 17 17 17 17 17 17 17 17 17 17 17 17 16 16 16 16 16 16 16 16 16 16 16 16 16 16 16 16 16 16 16 16 16 16 15 15 15
17 16 17 17 17 17 17 17 17 17 17 17 17 17 17 17 16 16 16 16 16 16 16 16 16 16 16 16 16 16 16 16 16 16 16 16 16 16 16 16 15 15 15
16 16 16 17 17 17 17 17 17 17 17 17 17 17 17 16 16 16 16 16 16 16 16 16 16 15 15 15 15 15 15 16 16 16 15 15 15 15 15 15 15 15 15
16 16 16 16 16 16 16 16 16 16 17 17 16 16 16 16 16 16 16 16 16 16 15 15 15 15 15 15 15 15 15 15 15 15 15 15 15 15 15 15 15 15 15
16 15 16 16 16 16 16 16 16 16 16 16 16 16 16 16 16 16 16 16 15 15 15 15 15 15 15 15 15 15 15 15 15 14 14 14 14 15 15 15 15 15 15
15 15 16 16 16 16 16 16 16 16 16 16 16 16 16 16 16 16 16 15 15 15 15 15 15 15 14 14 14 14 14 15 14 14 14 14 14 14 14 14 14 14 14
15 15 15 15 16 16 16 16 16 16 16 16 16 16 16 16 15 15 15 15 15 15 15 14 14 14 14 14 14 14 14 14 14 14 14 14 14 14 14 14 14 14 14
15 15 15 15 15 15 15 15 16 16 16 16 16 16 15 15 15 15 15 15 15 15 14 14 14 14 14 14 14 14 14 14 13 13 13 13 14 14 14 14 14 13 13
15 15 15 15 15 15 15 15 15 15 15 15 15 15 15 15 15 15 15 15 14 14 14 14 14 14 14 14 14 14 14 14 13 13 13 13 13 13 13 13 13 13 13
14 14 14 14 14 15 15 15 15 15 15 15 15 15 15 15 15 14 14 14 14 14 14 14 14 13 14 13 13 13 13 13 13 12 12 12 13 12 12 12 13 13 13
14 14 14 14 14 14 15 15 15 15 15 15 15 15 14 14 14 14 14 14 14 13 13 13 13 13 13 13 13 13 13 12 12 12 12 12 12 12 12 12 12 12 12
14 14 14 14 14 14 14 14 14 14 14 14 14 14 14 14 14 13 13 13 13 13 13 13 13 13 13 12 12 12 12 12 12 11 11 12 12 12 12 11 12 12 12
13 14 14 14 14 14 14 14 14 14 14 14 14 14 14 13 13 13 13 13 13 13 12 12 12 12 12 12 12 12 12 11 11 11 11 12 12 11 11 11 11 11 11
13 13 14 14 14 14 14 14 14 14 14 14 13 13 13 13 13 13 12 12 12 12 12 12 12 12 12 12 11 11 11 11 11 11 11 11 11 11 11 11 11 11 11
13 13 13 13 14 14 14 14 13 13 13 13 13 13 13 13 12 12 12 12 12 12 12 12 11 11 11 11 11 11 11 10 10 10 10 10 11 11 10 10 10 10 10
13 13 13 13 13 13 13 13 13 13 13 13 13 13 12 12 12 12 12 12 12 12 11 11 11 11 11 11 11 10 10 10 10 10 10 10 10 10 10 10 10 10 10
13 13 13 13 13 13 13 13 13 13 13 12 12 12 12 12 12 12 11 11 11 11 11 11 10 11 11 10 10 10 10 10 10 9 9 9 9 10 10 10 9 9 10
12 12 13 13 13 13 13 12 12 12 12 12 12 12 12 11 11 11 11 11 11 11 11 10 10 10 10 10 10 10 10 10 9 9 9 9 9 9 9 9 9 9 9
12 12 12 12 12 12 12 12 12 12 12 12 11 11 11 11 11 11 11 10 10 10 10 10 10 10 10 10 10 10 9 9 9 9 9 9 9 9 9 9 9 9 9
12 12 12 12 12 12 12 12 12 11 11 11 11 11 11 11 11 10 10 10 10 10 10 10 9 9 9 9 9 9 9 9 9 8 8 8 8 8 8 8 8 9 9
11 11 12 12 12 12 12 11 11 11 11 11 11 11 11 10 10 10 10 10 10 10 9 9 9 9 9 9 9 8 8 8 8 8 8 8 8 8 8 8 8 8 8
11 11 11 11 11 11 11 11 11 11 11 11 11 11 10 10 10 10 10 10 9 9 9 9 9 9 8 8 8 7 7 8 8 8 8 8 8 8 8 8 8 7 7
10 10 11 11 11 11 11 11 11 11 11 10 10 10 10 10 10 10 9 9 9 9 9 9 8 8 8 8 7 7 7 7 7 7 7 7 7 7 7 7 7 7 7
9 10 10 10 10 10 11 10 10 10 10 10 10 10 10 10 9 9 9 9 9 9 9 8 8 8 8 7 7 7 7 7 6 6 7 7 7 7 7 7 7 6 6
9 9 9 9 10 10 10 10 10 10 10 10 10 10 9 9 9 9 9 9 9 8 8 8 8 8 7 7 7 7 7 7 6 6 6 6 6 6 6 6 6 6 6
8 9 9 9 9 9 10 10 10 10 9 9 9 9 9 9 9 9 9 9 8 8 8 8 8 7 7 7 7 7 6 6 6 6 6 6 6 6 6 6 6 6 6
Wind_Speed
9 12 14 13 13 13 13 13 13 12 12 12 11 11 11 10 10 10 9 9 9 9 8 8 8 8 8 8 8 8 8 8 8 7 7 6 6 5 5 4 2 3 5
11 14 15 14 14 13 13 12 12 12 12 11 11 11 11 10 10 9 9 9 8 8 8 8 7 7 7 7 7 7 7 7 7 6 5 4 5 5 4 4 4 4 5
12 14 15 14 14 13 13 12 12 12 11 11 11 10 10 10 9 9 8 8 8 7 7 7 7 7 7 7 7 7 7 7 6 5 2 3 4 5 4 4 3 3 3
12 13 14 14 14 14 13 13 12 12 11 11 11 10 10 9 9 9 8 8 7 7 7 7 7 7 7 7 6 6 6 6 5 3 2 3 4 5 4 4 3 3 3
12 13 14 15 14 14 13 12 12 12 11 11 11 10 10 9 9 8 8 8 7 7 7 6 6 6 6 6 6 6 6 5 3 2 3 3 3 4 3 3 3 3 2
12 12 14 14 14 13 13 12 12 11 11 10 10 10 9 9 8 8 8 7 7 7 6 6 6 6 6 6 5 5 4 3 2 2 2 2 3 4 3 2 2 2 2
11 11 14 14 14 13 13 12 11 11 10 10 10 9 9 9 8 8 8 7 7 6 6 5 5 5 6 6 5 5 4 3 2 2 2 3 3 4 3 3 3 2 2
10 11 13 13 14 13 12 12 11 11 10 10 9 9 9 9 8 8 8 7 7 6 6 5 5 5 5 5 4 4 4 3 2 2 1 2 3 3 3 3 3 3 3
9 9 10 12 12 13 12 12 11 10 10 10 9 9 9 9 8 7 7 6 6 5 5 5 5 5 4 4 3 3 3 3 2 1 1 1 3 3 3 3 3 4 4
8 8 9 10 10 10 11 11 11 10 10 10 9 9 9 8 8 7 7 6 6 5 5 4 4 4 4 3 3 2 1 2 1 1 1 2 3 4 4 4 4 4 5
7 7 7 8 8 8 9 10 10 10 10 9 9 9 8 6 6 6 6 6 5 5 4 4 4 3 3 2 2 1 2 1 1 1 1 2 4 5 5 5 5 5 6
8 7 6 6 7 7 7 8 8 8 8 7 6 6 5 5 4 4 6 5 5 4 4 4 3 2 0 0 1 1 1 2 1 1 1 2 4 5 5 5 6 6 7
7 6 6 5 6 6 5 6 5 5 6 6 5 5 4 4 4 3 3 4 3 3 2 2 1 1 1 1 1 2 2 2 1 1 1 2 5 6 6 6 6 6 7
6 5 5 5 5 5 5 5 5 4 4 4 5 5 4 3 2 2 2 2 1 1 0 0 0 1 1 1 2 2 2 2 2 2 2 3 5 6 6 7 6 7 7
6 5 5 5 5 5 5 4 4 4 4 4 4 4 3 2 2 2 1 1 1 0 0 1 1 1 1 1 1 2 2 2 2 2 2 2 4 5 6 7 8 8 8
6 6 5 5 5 5 4 4 4 4 4 4 4 4 4 3 2 2 1 1 1 1 1 1 1 1 1 1 2 2 2 2 2 3 3 2 2 4 6 7 8 9 9
5 5 5 5 5 5 5 5 4 4 4 4 4 4 4 3 3 2 1 1 1 1 1 0 1 1 1 1 2 2 2 2 3 3 3 3 3 3 5 7 8 9 9
4 5 5 4 5 5 4 4 4 4 4 3 4 4 4 4 3 3 2 1 1 1 1 0 1 1 1 2 2 2 2 2 3 3 3 3 3 4 4 5 7 9 9
4 5 5 5 5 5 4 3 3 3 3 3 3 3 3 4 4 3 2 1 1 1 1 0 1 1 2 2 2 2 2 2 2 2 3 3 3 4 5 5 6 8 9
3 3 4 5 5 4 4 3 3 3 3 3 3 3 3 3 3 3 2 1 1 1 1 1 1 1 1 2 2 2 3 2 2 2 3 3 4 5 5 6 6 6 8
2 3 3 4 5 4 4 4 3 3 3 3 2 3 3 3 3 3 2 2 2 2 1 1 1 1 1 1 1 2 2 2 2 2 3 3 4 5 6 6 6 6 6
3 3 3 4 4 5 4 4 3 2 2 2 2 2 3 4 4 3 3 2 2 2 2 1 1 1 1 1 1 1 2 2 2 3 3 4 5 4 5 6 7 7 7
2 3 3 3 4 4 4 3 2 2 1 2 2 3 3 3 4 3 3 3 3 2 2 2 2 2 2 2 2 2 2 2 4 3 3 4 4 5 5 5 6 7 8
2 2 2 3 3 3 4 4 5 4 4 4 3 3 3 3 3 3 3 3 3 3 3 3 3 3 3 2 2 3 3 3 3 3 3 4 5 5 5 5 6 7 7
1 1 2 2 2 3 3 5 5 4 4 3 3 3 3 3 3 2 3 3 3 3 3 3 3 4 4 4 3 2 3 3 4 4 5 5 5 5 5 5 5 6 6
1 1 1 1 2 2 3 4 5 4 4 3 3 3 3 2 2 2 2 2 3 3 3 3 4 4 4 4 3 3 3 3 3 4 5 6 6 5 6 5 5 5 6
Wind_Direction
153 150 142 139 136 132 128 125 123 120 118 117 115 113 108 104 102 98 93 90 89 85 83 80 78 79 78 76 73 68 67 66 62 62 63 65 70 73 73 72 79 98 78
149 148 140 139 137 133 129 125 123 121 118 118 117 113 110 105 103 101 95 90 88 86 83 80 77 79 78 74 70 68 67 67 61 58 59 76 76 70 65 59 49 67 76
147 145 143 140 137 133 130 127 124 122 120 119 117 114 111 107 103 100 96 92 89 86 83 82 81 79 76 73 72 70 67 65 61 51 31 67 79 73 61 58 63 59 62
145 145 144 139 136 133 132 129 127 124 121 119 116 113 112 109 106 102 98 94 89 86 80 76 76 78 77 72 71 70 66 62 50 14 36 52 60 65 54 48 48 46 43
143 144 138 138 136 134 133 130 128 125 122 120 117 114 112 109 106 103 99 95 89 85 79 74 75 76 74 72 68 68 66 61 39 10 35 40 48 53 39 33 31 32 24
142 140 134 134 133 133 132 130 127 125 123 122 120 118 114 108 105 103 98 92 88 85 81 76 76 76 73 70 63 59 58 49 10 32 26 26 40 43 23 9 357 353 352
140 135 135 131 130 129 129 129 127 126 124 122 121 119 116 111 105 101 99 93 88 83 80 77 78 75 72 69 61 53 48 23 4 22 22 28 32 21 12 6 356 335 326
140 135 136 133 132 131 130 129 128 126 126 124 120 116 113 109 105 102 99 95 91 85 80 79 78 75 71 65 57 53 39 6 359 6 14 31 29 4 356 352 348 333 311
140 139 140 145 140 135 132 131 131 129 128 125 120 114 110 107 104 102 97 93 91 85 81 80 76 73 66 59 53 51 36 356 327 351 347 12 16 348 340 330 326 322 310
143 145 145 149 148 148 143 134 134 132 128 125 121 115 114 114 111 107 103 94 89 85 82 83 79 72 64 58 52 46 18 288 322 338 335 14 350 326 320 321 316 311 309
150 150 148 150 151 151 150 144 141 136 129 130 126 120 127 128 123 120 104 99 93 88 85 81 73 67 68 86 71 27 268 272 331 327 330 6 331 317 310 307 306 306 304
163 160 156 154 155 154 152 154 154 149 143 141 139 139 139 133 127 123 120 114 105 97 98 85 74 82 250 150 123 239 266 293 286 286 337 349 316 308 308 302 299 300 301
166 163 163 159 159 158 156 156 154 150 148 148 146 144 143 139 140 139 138 136 130 124 104 104 127 49 344 340 309 296 310 310 297 306 336 340 312 310 309 303 298 300 300
172 167 165 162 161 162 160 158 155 153 154 152 154 155 155 150 156 151 155 148 155 151 115 257 315 354 333 316 303 304 306 303 305 321 346 342 317 310 309 308 302 300 302
179 177 171 169 167 163 163 162 164 164 164 158 158 163 168 168 172 173 173 170 187 199 232 306 312 337 318 320 309 306 305 304 301 303 323 337 314 313 311 310 308 304 302
187 184 177 173 171 167 170 171 171 173 172 170 165 167 176 179 179 183 185 185 199 226 265 280 314 317 315 315 306 303 303 310 308 304 307 326 320 313 312 312 311 309 307
191 186 184 181 175 176 178 177 175 178 179 175 168 172 178 184 189 192 196 201 213 228 240 276 315 310 314 309 301 308 309 309 306 308 309 312 318 319 313 314 314 312 312
190 189 185 181 181 178 178 179 174 178 181 178 172 177 184 189 195 198 202 210 224 213 200 217 303 309 309 307 309 308 304 304 302 312 308 308 315 318 322 317 311 310 312
192 190 185 183 183 179 174 174 171 171 179 177 174 177 190 194 200 206 211 212 210 212 207 224 286 298 308 317 312 301 298 293 301 304 304 311 319 318 315 321 314 308 307
188 186 187 182 182 173 167 165 164 170 180 181 182 183 186 194 202 207 208 206 206 214 224 237 273 299 306 317 316 310 298 292 288 298 305 306 315 319 315 317 315 312 304
175 180 182 185 181 174 173 179 184 192 191 191 195 193 191 196 200 202 205 202 215 222 234 227 247 287 342 340 323 318 299 276 278 292 299 302 313 319 318 320 317 313 307
181 183 190 188 187 186 190 191 200 192 200 196 190 200 206 203 200 204 210 210 217 226 226 220 212 246 302 298 297 307 306 279 276 297 303 306 310 318 319 321 319 316 315
192 193 193 190 189 191 185 178 162 158 168 182 195 203 213 209 205 209 213 213 216 222 225 224 218 233 240 268 276 272 275 277 306 279 296 302 311 316 319 322 324 322 319
202 200 194 186 187 184 183 186 188 196 205 211 212 204 205 206 205 207 215 216 219 224 228 229 228 238 228 241 252 262 276 280 279 288 286 303 314 318 322 324 321 321 321
172 180 190 183 184 185 190 194 202 214 217 209 205 204 201 200 205 204 212 216 220 229 232 234 234 236 234 242 246 254 267 274 269 271 291 306 314 319 320 318 316 319 321
110 110 138 173 183 191 196 203 212 218 214 200 203 207 206 205 206 200 218 227 229 231 232 235 239 242 244 250 256 254 261 268 270 275 285 298 305 310 313 311 313 320 322
Height
1518 1520 1522 1524 1526 1528 1529 1531 1532 1533 1533 1534 1534 1535 1535 1535 1536 1536 1536 1536 1536 1536 1536 1536 1536 1535 1535 1535 1534 1534 1534 1534 1534 1533 1533 1533 1533 1533 1532 1532 1532 1532 1531
1517 1520 1521 1524 1526 1528 1529 1531 1532 1533 1534 1534 1535 1535 1536 1536 1536 1536 1536 1536 1536 1536 1536 1536 1536 1535 1535 1535 1534 1534 1534 1533 1533 1533 1533 1533 1533 1532 1532 1532 1532 1532 1531
1517 1520 1522 1524 1526 1528 1530 1531 1532 1533 1534 1535 1535 1535 1536 1536 1536 1536 1536 1536 1536 1536 1536 1536 1535 1535 1535 1534 1534 1534 1533 1533 1533 1533 1533 1533 1533 1532 1532 1531 1531 1531 1531
1517 1520 1522 1524 1526 1528 1530 1531 1532 1533 1534 1535 1535 1536 1536 1536 1536 1536 1536 1536 1536 1536 1536 1535 1535 1535 1534 1534 1534 1533 1533 1533 1533 1533 1534 1533 1532 1531 1531 1531 1530 1530 1530
1518 1520 1522 1524 1526 1528 1530 1531 1532 1533 1534 1535 1535 1536 1536 1536 1536 1536 1536 1536 1536 1536 1535 1535 1534 1534 1534 1534 1533 1533 1533 1533 1532 1532 1532 1532 1531 1531 1530 1530 1529 1529 1528
1518 1520 1522 1524 1526 1528 1530 1531 1532 1533 1534 1535 1535 1536 1536 1536 1536 1536 1536 1535 1535 1535 1535 1534 1534 1534 1533 1533 1533 1532 1532 1532 1532 1532 1531 1531 1530 1529 1529 1528 1528 1528 1527
1518 1521 1522 1525 1527 1528 1530 1531 1532 1533 1534 1535 1535 1535 1535 1535 1536 1535 1535 1535 1535 1534 1534 1534 1533 1533 1532 1532 1532 1531 1531 1531 1531 1531 1530 1529 1529 1528 1528 1527 1527 1526 1526
1519 1521 1522 1525 1527 1528 1530 1531 1532 1533 1534 1534 1535 1535 1535 1535 1535 1535 1535 1534 1534 1534 1533 1533 1532 1532 1531 1531 1530 1530 1530 1529 1529 1529 1528 1528 1527 1526 1526 1525 1525 1525 1524
1519 1521 1523 1525 1526 1528 1529 1531 1532 1533 1533 1534 1534 1535 1535 1535 1535 1534 1534 1534 1533 1533 1532 1532 1531 1531 1530 1530 1529 1529 1528 1528 1528 1527 1527 1526 1525 1524 1524 1523 1523 1522 1522
1519 1521 1522 1524 1526 1527 1529 1530 1531 1532 1533 1533 1534 1534 1534 1534 1534 1534 1533 1533 1532 1532 1531 1531 1530 1530 1529 1528 1528 1527 1527 1526 1526 1526 1525 1524 1523 1522 1522 1521 1521 1520 1520
1518 1520 1522 1523 1525 1527 1528 1529 1530 1531 1532 1533 1533 1533 1533 1533 1533 1533 1532 1532 1531 1531 1530 1530 1529 1528 1528 1527 1526 1526 1525 1525 1524 1523 1523 1522 1521 1520 1520 1519 1519 1518 1518
1518 1519 1521 1522 1524 1525 1527 1528 1529 1530 1531 1532 1532 1532 1532 1532 1532 1532 1531 1531 1531 1530 1529 1529 1528 1527 1526 1526 1525 1524 1524 1523 1522 1521 1520 1519 1519 1518 1517 1517 1516 1516 1515
1517 1518 1520 1521 1523 1524 1526 1527 1528 1529 1529 1530 1531 1531 1531 1531 1531 1531 1530 1530 1529 1529 1528 1527 1527 1526 1525 1524 1524 1523 1522 1521 1521 1520 1519 1517 1516 1516 1515 1514 1514 1513 1512
1516 1517 1519 1520 1522 1523 1524 1525 1526 1527 1528 1528 1529 1529 1530 1530 1530 1529 1529 1528 1528 1527 1527 1526 1525 1524 1524 1523 1522 1521 1520 1519 1519 1518 1516 1515 1514 1513 1512 1512 1511 1510 1509
1514 1516 1517 1519 1520 1522 1523 1524 1525 1526 1527 1527 1527 1528 1528 1528 1528 1528 1528 1527 1527 1526 1525 1525 1524 1523 1522 1521 1520 1519 1518 1518 1517 1515 1514 1513 1512 1511 1510 1509 1508 1507 1506
1512 1514 1516 1517 1519 1520 1521 1523 1524 1524 1525 1526 1526 1526 1526 1527 1527 1526 1526 1525 1525 1525 1524 1523 1523 1522 1521 1520 1519 1518 1517 1516 1515 1514 1513 1511 1509 1508 1507 1506 1505 1504 1503
1510 1512 1514 1515 1517 1518 1520 1521 1522 1522 1523 1524 1524 1525 1525 1525 1525 1525 1524 1524 1523 1523 1522 1522 1521 1520 1519 1518 1517 1517 1515 1514 1513 1512 1511 1509 1508 1506 1505 1503 1502 1501 1500
1508 1509 1511 1513 1515 1516 1518 1519 1520 1521 1521 1522 1522 1523 1523 1523 1523 1523 1523 1522 1522 1521 1521 1520 1519 1519 1518 1517 1516 1515 1514 1513 1512 1511 1509 1508 1506 1504 1503 1501 1499 1498 1497
1505 1507 1509 1510 1512 1514 1515 1517 1518 1519 1519 1520 1520 1520 1521 1521 1521 1521 1521 1520 1520 1519 1519 1518 1518 1517 1516 1515 1514 1513 1512 1511 1510 1509 1508 1506 1504 1502 1501 1499 1497 1495 1494
1503 1504 1506 1508 1509 1511 1513 1514 1515 1516 1517 1518 1518 1518 1518 1519 1519 1519 1519 1518 1518 1518 1517 1517 1516 1516 1515 1514 1513 1512 1511 1509 1508 1507 1506 1505 1503 1501 1499 1497 1495 1493 1491
1500 1502 1503 1505 1507 1508 1510 1511 1512 1514 1515 1515 1516 1516 1516 1516 1517 1517 1516 1516 1516 1516 1515 1515 1514 1514 1513 1512 1511 1510 1509 1508 1507 1506 1504 1503 1501 1499 1497 1495 1492 1490 1488
1497 1499 1500 1502 1504 1505 1507 1508 1510 1511 1512 1513 1513 1514 1514 1514 1514 1514 1514 1514 1513 1513 1513 1513 1512 1511 1511 1511 1510 1509 1508 1508 1506 1504 1502 1500 1499 1497 1495 1492 1490 1488 1485
1495 1496 1497 1499 1501 1502 1504 1506 1507 1508 1509 1510 1510 1511 1511 1512 1512 1512 1512 1511 1511 1511 1511 1510 1510 1510 1509 1509 1509 1509 1508 1506 1504 1502 1500 1499 1497 1494 1492 1490 1488 1485 1483
1492 1494 1495 1496 1498 1499 1501 1502 1504 1505 1506 1507 1508 1508 1509 1509 1509 1509 1509 1509 1509 1509 1508 1508 1508 1508 1507 1507 1506 1506 1506 1505 1503 1500 1499 1497 1495 1492 1490 1488 1485 1483 1480
1490 1491 1493 1494 1495 1496 1498 1499 1501 1502 1503 1504 1505 1505 1506 1506 1507 1507 1507 1507 1506 1506 1506 1505 1505 1505 1505 1505 1504 1503 1503 1502 1501 1499 1496 1494 1493 1491 1488 1485 1483 1480 1478
1488 1489 1490 1491 1492 1493 1495 1496 1497 1499 1500 1501 1502 1502 1503 1504 1504 1503 1504 1504 1504 1504 1503 1503 1503 1502 1502 1502 1502 1501 1500 1499 1498 1497 1495 1492 1490 1488 1486 1483 1481 1478 1475